| time (UTC) | temp F | wind direction | speed MPH | gust MPH | rain 1hr in | rain 24hr in | rain mn in | humidity % | barometer mb |
| 20260506050905 | 34 | 112 | 0.0 | 2.0 | 0.00 | 0.00 | 0.00 | 84 | 1009.3 |
| 20260506044503 | 33 | 126 | 1.0 | 2.0 | 0.00 | 0.00 | 0.00 | 87 | 1009.4 |
| 20260506043603 | 33 | 241 | 1.0 | 2.0 | 0.00 | 0.00 | 0.00 | 85 | 1009.2 |
| 20260506042703 | 33 | 247 | 0.0 | 2.0 | 0.00 | 0.00 | 0.00 | 85 | 1009.3 |
| 20260506041803 | 33 | 247 | 0.0 | 2.0 | 0.00 | 0.00 | 0.00 | 85 | 1009.3 |
| 20260506040903 | 32 | 247 | 0.0 | 2.0 | 0.00 | 0.00 | 0.00 | 84 | 1009.3 |
| 20260506040003 | 32 | 0 | 0.0 | 0.0 | 0.00 | 0.00 | 0.00 | 85 | 1009.0 |
| 20260506035403 | 31 | 0 | 0.0 | 0.0 | 0.00 | 0.00 | 0.00 | 86 | 1009.2 |
| 20260506034505 | 30 | 0 | 0.0 | 0.0 | 0.00 | 0.00 | 0.00 | 88 | 1008.9 |
| 20260506033603 | 29 | 0 | 0.0 | 0.0 | 0.00 | 0.00 | 0.00 | 89 | 1009.1 |
| 20260506032704 | 29 | 0 | 0.0 | 0.0 | 0.00 | 0.00 | 0.00 | 93 | 1009.0 |
| 20260506031803 | 26 | 0 | 0.0 | 0.0 | 0.00 | 0.00 | 0.00 | 94 | 1008.7 |
| 20260506030924 | 26 | 0 | 0.0 | 0.0 | 0.00 | 0.00 | 0.00 | 93 | 1008.9 |
| 20260506030027 | 26 | 0 | 0.0 | 0.0 | 0.00 | 0.00 | 0.00 | 92 | 1008.7 |
| 20260506025405 | 26 | 0 | 0.0 | 0.0 | 0.00 | 0.00 | 0.00 | 92 | 1008.6 |
| 20260506024503 | 26 | 0 | 0.0 | 0.0 | 0.00 | 0.00 | 0.00 | 91 | 1008.4 |
| 20260506023603 | 27 | 0 | 0.0 | 0.0 | 0.00 | 0.00 | 0.00 | 91 | 1008.7 |
| 20260506022724 | 27 | 0 | 0.0 | 0.0 | 0.00 | 0.00 | 0.00 | 91 | 1008.5 |
| 20260506021805 | 27 | 0 | 0.0 | 0.0 | 0.00 | 0.00 | 0.00 | 91 | 1008.5 |
| 20260506020903 | 26 | 0 | 0.0 | 0.0 | 0.00 | 0.00 | 0.00 | 91 | 1008.5 |
| 20260506020003 | 27 | 0 | 0.0 | 0.0 | 0.00 | 0.00 | 0.00 | 91 | 1008.4 |
| 20260506015403 | 27 | 0 | 0.0 | 0.0 | 0.00 | 0.00 | 0.00 | 91 | 1008.4 |
| 20260506014503 | 27 | 0 | 0.0 | 0.0 | 0.00 | 0.00 | 0.00 | 92 | 1008.1 |
| 20260506013605 | 26 | 0 | 0.0 | 0.0 | 0.00 | 0.00 | 0.00 | 91 | 1008.2 |
| 20260506012703 | 27 | 0 | 0.0 | 0.0 | 0.00 | 0.00 | 0.00 | 90 | 1008.1 |
| 20260506011805 | 27 | 247 | 0.0 | 2.0 | 0.00 | 0.00 | 0.00 | 90 | 1008.4 |
| 20260506010924 | 27 | 0 | 0.0 | 0.0 | 0.00 | 0.00 | 0.00 | 91 | 1008.1 |
| 20260506010005 | 27 | 0 | 0.0 | 0.0 | 0.00 | 0.00 | 0.00 | 90 | 1008.0 |
| 20260506005405 | 28 | 0 | 0.0 | 0.0 | 0.00 | 0.00 | 0.00 | 90 | 1008.0 |
| 20260506004524 | 28 | 0 | 0.0 | 0.0 | 0.00 | 0.00 | 0.00 | 90 | 1007.9 |
| 20260506003605 | 28 | 0 | 0.0 | 0.0 | 0.00 | 0.00 | 0.00 | 89 | 1007.8 |
| 20260506002703 | 28 | 0 | 0.0 | 0.0 | 0.00 | 0.00 | 0.00 | 87 | 1007.6 |
| 20260506001803 | 29 | 0 | 0.0 | 0.0 | 0.00 | 0.00 | 0.00 | 87 | 1007.7 |
| 20260506000905 | 29 | 0 | 0.0 | 0.0 | 0.00 | 0.00 | 0.00 | 87 | 1007.7 |
| 20260506000025 | 29 | 0 | 0.0 | 0.0 | 0.00 | 0.00 | 0.00 | 86 | 1007.5 |
| 20260505235403 | 30 | 0 | 0.0 | 0.0 | 0.00 | 0.00 | 0.00 | 85 | 1007.4 |
| 20260505234503 | 30 | 247 | 0.0 | 2.0 | 0.00 | 0.00 | 0.00 | 85 | 1007.4 |
| 20260505233603 | 30 | 247 | 1.0 | 2.0 | 0.00 | 0.00 | 0.00 | 83 | 1007.5 |
| 20260505232705 | 31 | 0 | 0.0 | 0.0 | 0.00 | 0.00 | 0.00 | 81 | 1007.7 |
| 20260505231805 | 31 | 0 | 0.0 | 0.0 | 0.00 | 0.00 | 0.00 | 81 | 1007.5 |
| 20260505230903 | 32 | 247 | 0.0 | 2.0 | 0.00 | 0.00 | 0.00 | 78 | 1007.3 |
| 20260505230024 | 33 | 247 | 0.0 | 2.0 | 0.00 | 0.00 | 0.00 | 75 | 1007.5 |
| 20260505225403 | 34 | 247 | 2.0 | 2.0 | 0.00 | 0.00 | 0.00 | 75 | 1007.4 |
| 20260505224503 | 33 | 247 | 1.0 | 2.0 | 0.00 | 0.00 | 0.00 | 77 | 1007.2 |
| 20260505223603 | 33 | 247 | 1.0 | 2.0 | 0.00 | 0.00 | 0.00 | 79 | 1007.6 |
| 20260505222703 | 32 | 247 | 2.0 | 2.0 | 0.00 | 0.00 | 0.00 | 79 | 1007.2 |
| 20260505221803 | 32 | 247 | 0.0 | 2.0 | 0.00 | 0.00 | 0.00 | 80 | 1007.2 |
| 20260505220903 | 33 | 247 | 1.0 | 2.0 | 0.00 | 0.00 | 0.00 | 79 | 1007.3 |
| 20260505220003 | 34 | 247 | 0.0 | 4.0 | 0.00 | 0.00 | 0.00 | 74 | 1007.2 |
| 20260505215404 | 35 | 247 | 1.0 | 4.0 | 0.00 | 0.00 | 0.00 | 70 | 1007.0 |
| 20260505214503 | 36 | 247 | 2.0 | 4.0 | 0.00 | 0.00 | 0.00 | 69 | 1007.1 |
| 20260505213603 | 36 | 247 | 2.0 | 2.0 | 0.00 | 0.00 | 0.00 | 70 | 1006.8 |
| 20260505212703 | 37 | 247 | 1.0 | 4.0 | 0.00 | 0.00 | 0.00 | 67 | 1006.9 |
| 20260505211825 | 37 | 247 | 2.0 | 4.0 | 0.00 | 0.00 | 0.00 | 67 | 1006.9 |
| 20260505210925 | 37 | 245 | 2.0 | 4.0 | 0.00 | 0.00 | 0.00 | 67 | 1006.8 |
| 20260505210003 | 37 | 243 | 2.0 | 4.0 | 0.00 | 0.00 | 0.00 | 67 | 1006.5 |
| 20260505205403 | 38 | 242 | 2.0 | 4.0 | 0.00 | 0.00 | 0.00 | 65 | 1006.5 |
| 20260505204503 | 38 | 247 | 2.0 | 4.0 | 0.00 | 0.00 | 0.00 | 64 | 1006.6 |
| 20260505203604 | 38 | 241 | 2.0 | 4.0 | 0.00 | 0.00 | 0.00 | 63 | 1006.5 |
| 20260505202726 | 39 | 241 | 3.0 | 4.0 | 0.00 | 0.00 | 0.00 | 63 | 1006.3 |
| 20260505201805 | 39 | 236 | 2.0 | 6.0 | 0.00 | 0.00 | 0.00 | 64 | 1006.6 |
| 20260505200905 | 40 | 241 | 3.0 | 4.0 | 0.00 | 0.00 | 0.00 | 63 | 1006.1 |
| 20260505200004 | 40 | 236 | 4.0 | 4.0 | 0.00 | 0.00 | 0.00 | 61 | 1006.2 |
| 20260505195403 | 40 | 233 | 2.0 | 4.0 | 0.00 | 0.00 | 0.00 | 57 | 1006.2 |
| 20260505194503 | 41 | 254 | 2.0 | 4.0 | 0.00 | 0.00 | 0.00 | 56 | 1006.0 |
| 20260505193604 | 41 | 266 | 2.0 | 2.0 | 0.00 | 0.00 | 0.00 | 55 | 1006.2 |
| 20260505192724 | 42 | 265 | 1.0 | 4.0 | 0.00 | 0.00 | 0.00 | 55 | 1005.8 |
| 20260505191803 | 42 | 265 | 2.0 | 4.0 | 0.00 | 0.00 | 0.00 | 53 | 1005.8 |
| 20260505190903 | 42 | 270 | 2.0 | 4.0 | 0.00 | 0.00 | 0.00 | 53 | 1005.7 |
| 20260505190024 | 43 | 270 | 2.0 | 4.0 | 0.00 | 0.00 | 0.00 | 52 | 1005.6 |
| 20260505185425 | 43 | 266 | 2.0 | 4.0 | 0.00 | 0.00 | 0.00 | 51 | 1005.8 |
| 20260505184503 | 43 | 254 | 2.0 | 4.0 | 0.00 | 0.00 | 0.00 | 50 | 1005.7 |
| 20260505183625 | 44 | 273 | 3.0 | 4.0 | 0.00 | 0.00 | 0.00 | 51 | 1005.7 |
| 20260505182724 | 44 | 272 | 3.0 | 4.0 | 0.00 | 0.00 | 0.00 | 50 | 1005.4 |
| 20260505181803 | 44 | 280 | 3.0 | 6.0 | 0.00 | 0.00 | 0.00 | 49 | 1005.3 |
| 20260505180903 | 44 | 285 | 3.0 | 7.0 | 0.00 | 0.00 | 0.00 | 48 | 1005.4 |
| 20260505180004 | 45 | 288 | 4.0 | 6.0 | 0.00 | 0.00 | 0.00 | 48 | 1005.2 |
| 20260505175403 | 45 | 286 | 3.0 | 11.0 | 0.00 | 0.00 | 0.00 | 48 | 1005.3 |
| 20260505174504 | 46 | 284 | 2.0 | 7.0 | 0.00 | 0.00 | 0.00 | 48 | 1005.1 |
| 20260505173605 | 45 | 295 | 5.0 | 8.0 | 0.00 | 0.00 | 0.00 | 49 | 1005.2 |
| 20260505172724 | 45 | 302 | 3.0 | 13.0 | 0.00 | 0.00 | 0.00 | 49 | 1005.1 |
| 20260505171803 | 45 | 327 | 10.0 | 13.0 | 0.00 | 0.00 | 0.00 | 47 | 1005.1 |
| 20260505170903 | 45 | 324 | 6.0 | 14.0 | 0.00 | 0.00 | 0.00 | 48 | 1005.0 |
| 20260505170004 | 45 | 318 | 7.0 | 21.0 | 0.00 | 0.00 | 0.00 | 48 | 1005.1 |
| 20260505165403 | 46 | 341 | 4.0 | 6.0 | 0.00 | 0.00 | 0.00 | 44 | 1005.1 |
| 20260505164504 | 47 | 355 | 3.0 | 6.0 | 0.00 | 0.00 | 0.00 | 44 | 1004.7 |
| 20260505163603 | 47 | 331 | 4.0 | 7.0 | 0.00 | 0.00 | 0.00 | 42 | 1004.5 |
| 20260505162703 | 47 | 339 | 5.0 | 9.0 | 0.00 | 0.00 | 0.00 | 40 | 1004.5 |
| 20260505161805 | 48 | 338 | 5.0 | 9.0 | 0.00 | 0.00 | 0.00 | 38 | 1004.5 |
| 20260505160903 | 46 | 311 | 7.0 | 13.0 | 0.00 | 0.00 | 0.00 | 41 | 1004.6 |
| 20260505152703 | 48 | 298 | 3.0 | 7.0 | 0.00 | 0.00 | 0.00 | 36 | 1004.2 |
| 20260505151803 | 49 | 263 | 4.0 | 11.0 | 0.00 | 0.00 | 0.00 | 31 | 1004.0 |
| 20260505150903 | 49 | 284 | 8.0 | 11.0 | 0.00 | 0.00 | 0.00 | 32 | 1004.1 |
| 20260505124504 | 48 | 255 | 6.0 | 11.0 | 0.00 | 0.00 | 0.00 | 41 | 1003.7 |
| 20260505123603 | 49 | 263 | 2.0 | 11.0 | 0.00 | 0.00 | 0.00 | 43 | 1003.7 |
| 20260505122703 | 49 | 258 | 4.0 | 13.0 | 0.00 | 0.00 | 0.00 | 43 | 1003.8 |
| 20260505121803 | 47 | 250 | 5.0 | 15.0 | 0.00 | 0.00 | 0.00 | 50 | 1003.6 |
| 20260505120903 | 47 | 285 | 5.0 | 13.0 | 0.00 | 0.00 | 0.00 | 44 | 1003.8 |
| 20260505120004 | 47 | 298 | 4.0 | 20.0 | 0.00 | 0.00 | 0.00 | 38 | 1003.6 |
| 20260505115403 | 47 | 306 | 10.0 | 20.0 | 0.00 | 0.00 | 0.00 | 43 | 1003.9 |
| 20260505114503 | 46 | 310 | 4.0 | 15.0 | 0.00 | 0.00 | 0.00 | 43 | 1003.8 |
| 20260505113603 | 46 | 289 | 9.0 | 17.0 | 0.00 | 0.00 | 0.00 | 46 | 1003.5 |
| 20260505112703 | 47 | 268 | 7.0 | 11.0 | 0.00 | 0.00 | 0.00 | 49 | 1003.4 |
| 20260505111803 | 46 | 244 | 2.0 | 8.0 | 0.00 | 0.00 | 0.00 | 50 | 1003.4 |
| 20260505110903 | 45 | 260 | 4.0 | 13.0 | 0.00 | 0.00 | 0.00 | 50 | 1003.5 |
| 20260505101803 | 48 | 300 | 7.0 | 13.0 | 0.00 | 0.00 | 0.00 | 43 | 1003.3 |
| 20260505100903 | 48 | 309 | 3.0 | 11.0 | 0.00 | 0.00 | 0.00 | 44 | 1003.1 |
| 20260505100003 | 47 | 312 | 3.0 | 9.0 | 0.00 | 0.00 | 0.00 | 46 | 1003.0 |
| 20260505095424 | 46 | 301 | 3.0 | 13.0 | 0.00 | 0.00 | 0.00 | 49 | 1003.1 |
| 20260505094505 | 48 | 295 | 4.0 | 14.0 | 0.00 | 0.00 | 0.00 | 44 | 1002.9 |
| 20260505093603 | 48 | 311 | 7.0 | 13.0 | 0.00 | 0.00 | 0.00 | 42 | 1003.1 |
| 20260505092705 | 47 | 303 | 2.0 | 16.0 | 0.00 | 0.00 | 0.00 | 49 | 1003.1 |
| 20260505091803 | 46 | 290 | 4.0 | 14.0 | 0.00 | 0.00 | 0.00 | 47 | 1003.2 |
| 20260505090903 | 48 | 319 | 5.0 | 11.0 | 0.00 | 0.00 | 0.00 | 47 | 1003.0 |
| 20260505090005 | 46 | 316 | 8.0 | 11.0 | 0.00 | 0.00 | 0.00 | 48 | 1003.0 |
| 20260505085405 | 45 | 311 | 2.0 | 11.0 | 0.00 | 0.00 | 0.00 | 51 | 1002.9 |
| 20260505084505 | 45 | 324 | 4.0 | 8.0 | 0.00 | 0.00 | 0.00 | 52 | 1002.9 |
| 20260505083603 | 47 | 310 | 2.0 | 11.0 | 0.00 | 0.00 | 0.00 | 49 | 1003.0 |
| 20260505082705 | 44 | 270 | 6.0 | 11.0 | 0.00 | 0.00 | 0.00 | 52 | 1002.9 |
| 20260505081826 | 45 | 266 | 4.0 | 11.0 | 0.00 | 0.00 | 0.00 | 53 | 1002.7 |
| 20260505080906 | 44 | 297 | 6.0 | 9.0 | 0.00 | 0.00 | 0.00 | 56 | 1002.5 |
| 20260505080003 | 44 | 311 | 4.0 | 9.0 | 0.00 | 0.00 | 0.00 | 55 | 1002.6 |
| 20260505075426 | 45 | 322 | 4.0 | 11.0 | 0.00 | 0.00 | 0.00 | 55 | 1002.6 |
| 20260505074503 | 43 | 305 | 7.0 | 11.0 | 0.00 | 0.00 | 0.00 | 56 | 1002.6 |
| 20260505073605 | 43 | 303 | 5.0 | 11.0 | 0.00 | 0.00 | 0.00 | 59 | 1002.3 |
| 20260505072703 | 43 | 304 | 6.0 | 11.0 | 0.00 | 0.00 | 0.00 | 58 | 1002.5 |
| 20260505071805 | 42 | 307 | 4.0 | 8.0 | 0.00 | 0.00 | 0.00 | 59 | 1002.5 |
| 20260505070926 | 43 | 312 | 3.0 | 11.0 | 0.00 | 0.00 | 0.00 | 59 | 1002.2 |
| 20260505070003 | 42 | 303 | 7.0 | 11.0 | 0.00 | 0.00 | 0.00 | 58 | 1002.3 |
| 20260505065405 | 42 | 311 | 4.0 | 11.0 | 0.00 | 0.00 | 0.00 | 60 | 1002.3 |
| 20260505064508 | 42 | 304 | 8.0 | 14.0 | 0.00 | 0.00 | 0.00 | 58 | 1002.4 |
| 20260505063624 | 41 | 299 | 7.0 | 14.0 | 0.00 | 0.00 | 0.00 | 61 | 1002.0 |
| 20260505062705 | 41 | 306 | 7.0 | 11.0 | 0.00 | 0.00 | 0.00 | 61 | 1002.2 |
| 20260505061803 | 41 | 315 | 6.0 | 11.0 | 0.00 | 0.00 | 0.00 | 60 | 1002.3 |
| 20260505060903 | 40 | 309 | 5.0 | 11.0 | 0.00 | 0.00 | 0.00 | 61 | 1002.2 |
| 20260505060003 | 40 | 319 | 5.0 | 14.0 | 0.00 | 0.00 | 0.00 | 61 | 1002.0 |
| 20260505055424 | 40 | 310 | 6.0 | 14.0 | 0.00 | 0.00 | 0.00 | 61 | 1001.8 |
| 20260505054505 | 40 | 315 | 4.0 | 11.0 | 0.00 | 0.00 | 0.00 | 62 | 1001.9 |
| 20260505053605 | 40 | 305 | 5.0 | 14.0 | 0.00 | 0.00 | 0.00 | 62 | 1001.9 |
| 20260505052703 | 39 | 289 | 9.0 | 11.0 | 0.00 | 0.00 | 0.00 | 64 | 1001.9 |
| 20260505051803 | 39 | 290 | 4.0 | 11.0 | 0.00 | 0.00 | 0.00 | 68 | 1001.7 |